Regional Weather Roundup
Issued by NWS

Home | Current Version | Previous Version | Graphics & Text | Print | Product List | Glossary On
Versions: 1 2 3 4 5 6 7 8 9 10 11 12 13 14 15 16 17 18 19 20 21 22 23 24 25 26 27 28 29 30 31 32 33 34 35 36 37 38 39 40 41 42 43 44 45 46 47 48 49 50
000
ASUS43 KMKX 280310
RWRWI

WISCONSIN REGIONAL WEATHER ROUNDUP
NATIONAL WEATHER SERVICE MILWAUKEE/SULLIVAN WI
900 PM CST TUE JAN 27 2015

NOTE: "FAIR" INDICATES FEW OR NO CLOUDS BELOW 12,000 FEET WITH NO
SIGNIFICANT WEATHER AND/OR OBSTRUCTIONS TO VISIBILITY.

WIZ001-002-006>008-014>016-023>028-280400-
NORTHWEST WISCONSIN

CITY           SKY/WX    TMP DP  RH WIND       PRES   REMARKS
SUPERIOR ARPT  CLOUDY    28  24  84 S3        30.14F
ASHLAND        CLOUDY    28  21  75 S6        30.16F WCI  22
HAYWARD        CLOUDY    26  20  77 S6        30.14F WCI  19
SIREN          MOCLDY    28  22  76 S7        30.15S WCI  21
CUMBERLAND     MOCLDY    27  21  80 SE6       30.14F WCI  20
RICE LAKE      MOCLDY    26  21  82 E5        30.17S WCI  20
CHETEK         MOCLDY    25  20  82 E3        30.17R
LADYSMITH      CLOUDY    26  22  85 SE3       30.18S
EAU CLAIRE     CLOUDY    27  20  75 SE6       30.17S WCI  20
MENOMONIE      MOCLDY    25  21  83 SE5       30.17F WCI  19
NEW RICHMOND   CLOUDY    28  23  79 S6        30.16R WCI  22
OSCEOLA        CLOUDY    29  25  82 SE7       30.18S WCI  22
$$

WIZ003>005-009-010-017-018-280400-
NORTH CENTRAL WISCONSIN

CITY           SKY/WX    TMP DP  RH WIND       PRES   REMARKS
MANITOWISH WTR CLOUDY    22  19  88 S7        30.12F WCI  14
ARBOR VITAE    CLOUDY    24  21  87 S6        30.13S WCI  17
WOODRUFF       CLOUDY    24  21  87 S6        30.13S WCI  17
RHINELANDER    CLOUDY    22  17  81 S5        30.14F WCI  16
EAGLE RIVER    CLOUDY    22  18  83 CALM      30.13S
LAND O LAKES   CLOUDY    23  19  86 S5        30.13S WCI  17
PHILLIPS       CLOUDY    23  19  86 S9        30.14F WCI  13
TOMAHAWK       CLOUDY    22  18  85 CALM      30.15F
MEDFORD        CLOUDY    21  19  93 S6        30.16R WCI  14
MERRILL        CLOUDY    24  19  83 CALM      30.17F
$$

WIZ029-030-035-036-043>047-280400-
CENTRAL WISCONSIN

CITY           SKY/WX    TMP DP  RH WIND       PRES   REMARKS
WAUSAU         CLOUDY    23  19  85 S5        30.17S WCI  17
MOSINEE        CLOUDY    23  21  93 S5        30.19S WCI  17
MARSHFIELD     CLOUDY    25  21  85 S5        30.18S FOG     WCI  19
STEVENS POINT  CLOUDY    22  19  87 S3        30.21R
WAUPACA        CLOUDY    26  19  75 CALM      30.23R
WAUTOMA        CLOUDY    24  21  88 CALM      30.23R
WISC RAPIDS    CLOUDY    24  20  84 SE5       30.22R WCI  18
CAMP DOUGLAS   CLOUDY    27  27 100 SE5       30.20S WCI  21
$$

WIZ011>013-019>022-031-037>040-048>050-280400-
NORTHEAST WISCONSIN

CITY           SKY/WX    TMP DP  RH WIND       PRES   REMARKS
ANTIGO         CLOUDY    21  19  89 S6        30.17S WCI  14
SHAWANO        CLOUDY    26  17  70 CALM      30.23S
OCONTO         MOCLDY     9   7  94 CALM      30.25S
STURGEON BAY   PTCLDY    14  10  85 CALM      30.26R
GREEN BAY      CLOUDY    14  12  92 CALM      30.24F
MANITOWOC      CLOUDY    25  18  74 CALM      30.25S
APPLETON       CLOUDY    25  16  68 VRB5      30.22R WCI  19
CLINTONVILLE   CLOUDY    25  18  74 CALM      30.23R
OSHKOSH        CLOUDY    24  16  71 CALM      30.22S
$$

WIZ032>034-041-042-053>061-280400-
SOUTHWEST WISCONSIN

CITY           SKY/WX    TMP DP  RH WIND       PRES   REMARKS
LA CROSSE      CLOUDY    29  22  75 SE7       30.20S WCI  22
SPARTA         CLOUDY    26  22  86 SE3       30.21F
VIROQUA        CLOUDY    25  22  88 S7        30.18S WCI  17
BOSCOBEL       CLOUDY    28  21  75 CALM      30.23R
PRAIRIE DU CHI CLOUDY    28  20  73 SE5       30.22R WCI  23
PLATTEVILLE    CLOUDY    27  24  87 SE5       30.20S WCI  22
$$

WIZ056-057-062-063-064-067-068-280400-
SOUTH CENTRAL WISCONSIN

CITY           SKY/WX    TMP DP  RH WIND       PRES   REMARKS
REEDSBURG      CLOUDY    26  24  95 CALM      30.21S FOG
BARABOO/DELLS  CLOUDY    26  24  93 CALM      30.21S FOG
LONE ROCK      CLOUDY    27  25  92 E3        30.22F FOG
MINERAL POINT  CLOUDY    28  27  93 CALM      30.20R FOG
MADISON        CLOUDY    25  19  78 CALM      30.22R
MIDDLETON      CLOUDY    28  24  84 SE3       30.22S
WATERTOWN      CLOUDY    25  18  73 CALM      30.21S
MONROE         CLOUDY    28  27  93 SE3       30.20F FOG
JANESVILLE     CLOUDY    30  23  74 CALM      30.23R
$$

WIZ051-052-058>065-066-070>072-280400-
SOUTHEAST WISCONSIN

CITY           SKY/WX    TMP DP  RH WIND       PRES   REMARKS
MILWAUKEE      CLOUDY    27  17  66 N3        30.24S
WAUKESHA       CLOUDY    23  18  80 CALM      30.24R
MILWAUKEE/TIMM CLOUDY    27  18  69 NE3       30.24S
RACINE         CLOUDY    27  18  69 N9        30.25S WCI  18
BURLINGTON     CLEAR     13  11  94 CALM      30.24R
KENOSHA        CLEAR     19  15  84 NE5       30.23S WCI  12
FOND DU LAC    CLOUDY    23  17  78 CALM      30.23R
SHEBOYGAN      CLOUDY    26  17  68 N3        30.24S
WEST BEND      CLOUDY    27  18  69 CALM      30.22S
JUNEAU         CLOUDY    25  18  76 CALM      30.23R
$$

LSZ147-162-280400-
LAKE SUPERIOR

STATION/POSITION TIME  TEMP    WIND        PRES    WAVE
                       AIR SEA DIR/SP/G            HT/PER
                 (UTC) (F)     (DEG/KT/KT) (MB)    (FT/S)
DEVILS ISLAND    0300   29     200/  4/  6 1022.1F
PORT WING        0200   29     190/  4/  6 1021.7
SAXON HARBOR     0200   28        CALM     1021.7S
$$

LMZ867-665-643>646-280400-
LAKE MICHIGAN

STATION/POSITION TIME  TEMP    WIND        PRES    WAVE
                       AIR SEA DIR/SP/G            HT/PER
                 (UTC) (F)     (DEG/KT/KT) (MB)    (FT/S)
NORTHPORT PIER   0301   18     180/  2/  3 1024.4R
SISTER BAY       0243   16        CALM       N/A
KEWAUNEE LAKESHO 0200   25     270/  1/  2 1023.0F
SHEBOYGAN LAKESH 0300   27      10/  5/  8 1025.4R
PORT WASHINGTON  0200   27      40/  4/  9 1024.7
MILWAUKEE LAKESH 0200   28      30/  6/  9   N/A
KENOSHA   LAKESH 0300   27      40/  7/  9 1024.0S
$$

TC  - TEMPERATURE IN CELSIUS
VSB - VISIBILITY IN STATUTE MILES
WCI - WIND CHILL INDEX
HX  - HEAT INDEX



USA.gov is the U.S. government's official web portal to all federal, state and local government web resources and services.